This demonstration page uses our WeatherBlox Daily Observations layout. Learn more.

Left ArrowRight Arrow

Hourly Observations for February 3, 2022

Temp ( °F °C ) Dew Point ( °F °C ) Humidity (%) Winds ( mph kmh ) Pressure ( in mb ) Visibility ( mi km ) Precip ( " mm )
12:56 am 00:56 Mostly Cloudy 6 -14.5 -12 -24.4 43 43 NNE 7 11 30.68 1039 10 16 0.00 0.00
1:56 am 01:56 Mostly Cloudy 6 -14.7 -12 -24.6 43 43 N 10 17 30.69 1039 10 16 0.00 0.00
1:57 am 01:57 Mostly Cloudy 5 -15 -13 -25 42 42 N 9 15 30.69 1039 10 16 0.00 0.00
2:56 am 02:56 Mostly Cloudy 5 -15.1 -12 -24.7 44 44 N 10 17 30.69 1039 10 16 0.00 0.00
3:56 am 03:56 Clear 3 -16.1 -14 -25.6 44 44 NNE 9 15 30.69 1039 10 16 0.00 0.00
4:56 am 04:56 Clear 2 -16.8 -14 -25.5 47 47 NNE 6 9 30.69 1039 10 16 0.00 0.00
5:56 am 05:56 Clear 1 -17.3 -13 -25.1 51 51 NE 8 13 30.69 1039 10 16 0.00 0.00
6:56 am 06:56 Clear 0 -17.9 -13 -25.2 53 53 NNE 8 13 30.70 1040 10 16 0.00 0.00
7:56 am 07:56 undefined 0 -18 -13 -24.9 55 55 NE 7 11 30.70 1040 10 16 0.00 0.00
8:56 am 08:56 Sunny 2 -16.7 -13 -25 49 49 NNE 9 15 30.70 1040 10 16 0.00 0.00
9:56 am 09:56 Sunny 5 -15.1 -12 -24.7 44 44 NE 9 15 30.72 1040 10 16 0.00 0.00
10:56 am 10:56 undefined 9 -13 -11 -24.1 39 39 N 9 15 30.71 1040 10 16 0.00 0.00
11:56 am 11:56 Sunny 11 -11.4 -12 -24.5 33 33 N 8 13 30.70 1040 10 16 0.00 0.00
12:56 pm 12:56 undefined 15 -9.6 -10 -23.6 31 31 NE 7 11 30.66 1038 10 16 0.00 0.00
1:56 pm 13:56 undefined 16 -8.9 -11 -24.1 28 28 NNE 7 11 30.62 1037 10 16 0.00 0.00
2:56 pm 14:56 Sunny 18 -7.8 -11 -24 26 26 ENE 8 13 30.59 1036 10 16 0.00 0.00
3:56 pm 15:56 Sunny 19 -7.3 -11 -24 25 25 NNE 6 9 30.59 1036 10 16 0.00 0.00
4:56 pm 16:56 Sunny 18 -8 -12 -24.6 25 25 NNE 3 6 30.60 1036 10 16 0.00 0.00
5:56 pm 17:56 Clear 14 -10.2 -10 -23.1 34 34 ENE 5 7 30.60 1036 10 16 0.00 0.00
6:56 pm 18:56 Clear 12 -10.9 -10 -23.1 36 36 Calm 30.60 1036 10 16 0.00 0.00
7:56 pm 19:56 Clear 11 -11.5 -10 -23.3 37 37 Calm 30.61 1037 10 16 0.00 0.00
8:56 pm 20:56 Clear 10 -12.5 -9 -22.5 43 43 Calm 30.60 1036 10 16 0.00 0.00
9:56 pm 21:56 Clear 9 -13 -9 -22.7 44 44 Calm 30.61 1037 10 16 0.00 0.00
10:56 pm 22:56 Clear 8 -13.6 -7 -21.8 50 50 Calm 30.60 1036 10 16 0.00 0.00
11:56 pm 23:56 Clear 7 -13.9 -7 -21.9 51 51 SSE 5 7 30.60 1036 10 16 0.00 0.00

Powered by AerisWeather